Weather History for Bethel, AK

Change the Weather History Date:

Sunday, January 13, 2013

  Actual Average Record
Temperature  
Mean Temperature 31 °F -  
Max Temperature 37 °F 12 °F 40 °F (1963)
Min Temperature 25 °F - -44 °F (1951)
Degree Days  
Heating Degree Days 34 59  
Month to date heating degree days 510 762  
Since 1 July heating degree days 6463 6186  
Cooling Degree Days 0    
Month to date cooling degree days 0  
Year to date cooling degree days 0  
Moisture  
Dew Point 32 °F    
Average Humidity 0    
Maximum Humidity 0    
Minimum Humidity 0    
Precipitation  
Precipitation 0.13 in 0.03 in 0.65 in (1993)
Month to date precipitation 0.98 0.37  
Year to date precipitation 0.98 0.37  
Snow  
Snow 0.20 in 0.30 in 3.10 in (1993)
Month to date snowfall 9.8 4.4  
Since 1 July snowfall 22.5 33.7  
Snow Depth 13.00 in    
Sea Level Pressure  
Sea Level Pressure 29.38 in    
Wind  
Wind Speed 0 mph (SSW)    
Max Wind Speed 33 mph    
Max Gust Speed 44 mph    
Visibility 5 miles    
Events Rain , Snow    
T = Trace of Precipitation, MM = Missing Value Source: NWS Daily Summary

Daily Weather History Graph

Daily Weather History Graph

Search for Another Location

Airport:

Trip Planner

Search our weather history database for the weather conditions in past years. The results will help you decide how hot, cold, wet, or windy it might be!

Date:

Astronomy

Jan. 13, 2013 Rise Set
Actual Time 10:43 AM AKST 5:09 PM AKST
Civil Twilight 9:48 AM AKST 6:04 PM AKST
Nautical Twilight 8:52 AM AKST 7:00 PM AKST
Astronomical Twilight 8:00 AM AKST 7:52 PM AKST
Moon 10:53 AM AKST (1/13) 9:05 PM AKST (1/13)
Length of Visible Light 8h 16m
Length of Day
6h 26m
Waxing Crescent, 6% of the Moon is Illuminated
Jan 13
Waxing Crescent
Jan 18
First Quarter
Jan 26
Full
Feb 3
Last Quarter
Feb 9
New

Hourly Weather History & Observations

Time (AKST) Temp. Windchill Dew Point Humidity Pressure Visibility Wind Dir Wind Speed Gust Speed Precip Events Conditions
12:11 AM 37.4 °F 25.9 °F 35.6 °F 93% 29.28 in 10.0 mi SSE 25.3 mph 33.4 mph 0.00 in Rain Light Rain
12:36 AM 37.4 °F 26.4 °F 35.6 °F 93% 29.29 in 10.0 mi SSE 23.0 mph 33.4 mph 0.00 in Rain , Snow Light Rain
12:53 AM 37.0 °F 25.9 °F 37.0 °F 100% 29.30 in 10.0 mi SSE 23.0 mph 29.9 mph 0.00 in   Overcast
1:53 AM 36.0 °F 24.2 °F 36.0 °F 100% 29.32 in 7.0 mi South 24.2 mph - 0.00 in Snow Light Snow
2:53 AM 36.0 °F 23.7 °F 36.0 °F 100% 29.33 in 5.0 mi SSE 26.5 mph 35.7 mph 0.03 in Rain , Snow Light Rain
3:53 AM 36.0 °F 23.7 °F 36.0 °F 100% 29.34 in 8.0 mi SSE 26.5 mph - 0.03 in Rain , Snow Light Rain
4:53 AM 36.0 °F 23.9 °F 36.0 °F 100% 29.34 in 10.0 mi SSE 25.3 mph 34.5 mph 0.02 in   Overcast
5:39 AM 35.6 °F 23.4 °F 35.6 °F 100% 29.33 in 7.0 mi SSE 25.3 mph 33.4 mph 0.00 in Snow Light Snow
5:51 AM 35.6 °F 23.0 °F 35.6 °F 100% 29.33 in 5.0 mi SSE 27.6 mph 34.5 mph 0.00 in Snow Light Snow
5:53 AM 35.1 °F 22.5 °F 35.1 °F 100% 29.34 in 4.0 mi SSE 26.5 mph 34.5 mph 0.00 in Snow Light Snow
6:05 AM 35.6 °F 23.2 °F 35.6 °F 100% 29.33 in 3.0 mi SSE 26.5 mph 34.5 mph 0.00 in Snow Light Snow
6:21 AM 35.6 °F 23.2 °F 35.6 °F 100% 29.33 in 2.5 mi SSE 26.5 mph 33.4 mph 0.00 in Snow Light Snow
6:53 AM 35.1 °F 22.2 °F 35.1 °F 100% 29.34 in 2.0 mi SSE 27.6 mph - 0.00 in Snow Light Snow
7:03 AM 35.6 °F 22.7 °F 35.6 °F 100% 29.34 in 7.0 mi SSE 28.8 mph 39.1 mph 0.00 in Snow Light Snow
7:51 AM 35.6 °F 23.4 °F 35.6 °F 100% 29.36 in 9.0 mi SSE 25.3 mph 38.0 mph 0.00 in   Overcast
7:53 AM 35.1 °F 21.6 °F 35.1 °F 100% 29.37 in 9.0 mi South 31.1 mph 38.0 mph 0.00 in   Overcast
8:27 AM 35.6 °F 22.3 °F 35.6 °F 100% 29.39 in 7.0 mi South 31.1 mph 39.1 mph 0.00 in Rain Light Rain
8:51 AM 35.6 °F 22.5 °F 35.6 °F 100% 29.40 in 4.0 mi South 29.9 mph 42.6 mph 0.00 in Rain Light Rain
8:53 AM 35.1 °F 21.0 °F 35.1 °F 100% 29.41 in 4.0 mi South 34.5 mph 43.7 mph 0.00 in Rain Light Rain
9:53 AM 34.0 °F 21.8 °F 34.0 °F 100% 29.43 in 4.0 mi South 23.0 mph 32.2 mph 0.01 in Rain , Snow Light Snow
10:11 AM 35.6 °F 23.7 °F 35.6 °F 100% 29.43 in 9.0 mi SSE 24.2 mph 31.1 mph 0.00 in Rain , Snow Light Snow
10:18 AM 35.6 °F 23.7 °F 35.6 °F 100% 29.43 in 9.0 mi South 24.2 mph 31.1 mph 0.00 in   Overcast
10:42 AM 35.6 °F 24.0 °F 35.6 °F 100% 29.43 in 9.0 mi SSE 23.0 mph 29.9 mph 0.00 in   Overcast
10:53 AM 34.0 °F 22.4 °F 34.0 °F 100% 29.44 in 10.0 mi SSE 20.7 mph 28.8 mph 0.00 in   Overcast
11:53 AM 34.0 °F 22.4 °F 34.0 °F 100% 29.44 in 8.0 mi SSE 20.7 mph - 0.00 in Rain Light Rain
12:53 PM 34.0 °F 21.5 °F 34.0 °F 100% 29.44 in 2.5 mi South 24.2 mph 29.9 mph 0.01 in Rain , Snow Light Snow
1:13 PM 33.8 °F 21.6 °F 33.8 °F 100% 29.43 in 3.0 mi South 23.0 mph 31.1 mph 0.00 in Rain , Snow Light Snow
1:53 PM 34.0 °F 22.7 °F 34.0 °F 100% 29.44 in 4.0 mi South 19.6 mph 29.9 mph 0.00 in Rain , Snow Light Snow
2:22 PM 33.8 °F 23.9 °F 33.8 °F 100% 29.42 in 4.0 mi South 15.0 mph - 0.01 in Rain , Snow Light Snow
2:53 PM 34.0 °F 23.8 °F 34.0 °F 100% 29.42 in 5.0 mi South 16.1 mph - 0.01 in   Overcast
3:45 PM 33.8 °F 24.8 °F 33.8 °F 100% 29.42 in 5.0 mi South 12.7 mph - 0.00 in Rain Light Rain
3:53 PM 33.1 °F 23.4 °F 33.1 °F 100% 29.42 in 4.0 mi SSW 13.8 mph - 0.00 in   Overcast
4:19 PM 33.8 °F 24.3 °F 33.8 °F 100% 29.43 in 2.5 mi SSW 13.8 mph - N/A   Overcast
4:53 PM 33.1 °F 24.9 °F 33.1 °F 100% 29.43 in 2.5 mi SSW 10.4 mph - N/A   Overcast
5:17 PM 30.2 °F 23.4 °F 30.2 °F 100% 29.41 in 1.5 mi West 6.9 mph - N/A   Overcast
5:25 PM 30.2 °F 25.4 °F 30.2 °F 100% 29.41 in 3.0 mi NW 4.6 mph - N/A   Overcast
5:43 PM 30.2 °F 24.3 °F 30.2 °F 100% 29.41 in 1.0 mi WNW 5.8 mph - N/A   Overcast
5:51 PM 30.2 °F 23.4 °F 30.2 °F 100% 29.41 in 3.0 mi WNW 6.9 mph - N/A   Overcast
5:53 PM 30.0 °F 23.2 °F 30.0 °F 100% 29.42 in 3.0 mi NW 6.9 mph - N/A   Overcast
6:06 PM 30.2 °F 22.6 °F 30.2 °F 100% 29.42 in 5.0 mi WNW 8.1 mph - N/A   Overcast
6:21 PM 28.4 °F 20.4 °F 28.4 °F 100% 29.42 in 2.0 mi NW 8.1 mph - N/A   Overcast
6:53 PM 28.9 °F 21.1 °F 28.0 °F 96% 29.42 in 2.0 mi NW 8.1 mph - 0.00 in Snow Light Snow
6:55 PM 28.4 °F 20.4 °F 28.4 °F 100% 29.42 in 3.0 mi NW 8.1 mph - 0.00 in Snow Light Snow
7:51 PM 28.4 °F 19.7 °F 26.6 °F 93% 29.39 in 4.0 mi NW 9.2 mph - 0.00 in Snow Light Snow
7:53 PM 28.0 °F 19.3 °F 27.0 °F 96% 29.39 in 4.0 mi NNW 9.2 mph - 0.00 in Snow Light Snow
8:11 PM 28.4 °F 20.4 °F 26.6 °F 93% 29.39 in 6.0 mi NW 8.1 mph - 0.00 in Snow Light Snow
8:51 PM 28.4 °F 19.7 °F 26.6 °F 93% 29.37 in 8.0 mi NNW 9.2 mph - 0.00 in Snow Light Snow
8:53 PM 28.0 °F 20.0 °F 26.1 °F 92% 29.38 in 8.0 mi NNW 8.1 mph - 0.00 in Snow Light Snow
9:53 PM 27.0 °F 16.7 °F 26.1 °F 96% 29.37 in 10.0 mi NNW 11.5 mph - 0.00 in   Overcast
10:38 PM 26.6 °F 16.2 °F 24.8 °F 93% 29.34 in 1.0 mi NNW 11.5 mph - 0.00 in Snow Light Snow
10:51 PM 26.6 °F 15.7 °F 24.8 °F 93% 29.34 in 1.2 mi NNW 12.7 mph - 0.01 in Snow Light Snow
10:53 PM 26.1 °F 15.0 °F 25.0 °F 96% 29.34 in 1.2 mi NNW 12.7 mph - 0.01 in Snow Light Snow
11:53 PM 25.0 °F 13.1 °F 24.1 °F 96% 29.32 in 1.2 mi NNW 13.8 mph - 0.00 in Snow Light Snow